Location: Houston
(29.7630°N, 95.3630°W)
Time: 22:31:28
(UTC-05:00)

Daily predictions for brighter satellites

Satellite Brightness Start Highest point End
(mag) Time Altitude Azimuth Time Altitude Azimuth Time Altitude Azimuth
Resurs 01 Rocket 2.1 20:34:06 10° S 20:38:27 64° W 20:42:49 10° NNW
OAO 3 Rocket 3.3 20:35:32 10° WSW 20:40:27 65° SSE 20:45:22 10° ENE
Cosmos 1624 Rocket 4.4 20:36:10 10° SSW 20:41:23 73° WNW 20:46:42 10° NNE
Cosmos 2084 3.1 20:39:02 10° SSW 20:42:57 76° ESE 20:46:47 10° NNE
ERS-1 Rocket 4.4 20:43:43 10° ESE 20:47:19 20° ENE 20:50:55 10° NNE
Coronas F rocket 1.5 20:47:35 10° SSW 20:50:11 70° W 20:52:49 10° N
CZ-2D R/B 3.3 20:48:39 10° SSE 20:52:23 56° ENE 20:56:08 10° N
Cosmos 407 Rocket 4.3 20:52:54 10° N 20:57:43 34° ENE 21:02:12 12° SE
Meteosat 1 Rocket2 3.7 20:56:05 10° W 21:00:52 78° S 21:08:03 11° E
Cosmos 1733 Rocket 3.1 20:57:01 10° S 21:01:26 88° W 21:05:50 10° N
Cosmos 1908 Rocket 4.2 20:57:28 10° SSE 21:01:27 35° E 21:05:28 10° NNE
ISS -0.6 20:59:30 10° W 21:02:09 22° NW 21:04:47 10° NNE
Meteor 1-10 Rocket 4.4 20:57:15 10° N 21:02:53 54° E 21:08:21 10° SSE
Cosmos 1452 Rocket 3.5 21:00:30 10° S 21:05:42 68° ESE 21:10:57 10° NNE
Cosmos 1862 4.0 21:04:47 10° SSE 21:08:27 34° E 21:12:08 10° NNE
Cosmos 1892 4.0 21:05:54 10° SSW 21:09:33 43° W 21:13:14 10° N
Cosmos 1606 3.9 21:06:59 10° NNE 21:10:16 25° E 21:12:07 18° ESE
Cosmos 1184 Rocket 3.9 21:13:02 20° SE 21:14:20 25° E 21:17:08 10° NE
Cosmos 1190 Rocket 4.0 21:09:19 10° N 21:14:29 65° ENE 21:19:06 13° SSE
Cosmos 1238 Rocket 4.3 21:13:29 10° NE 21:16:14 19° E 21:17:06 18° E
CENTAUR R/B 3.5 21:11:12 10° NW 21:19:12 68° WSW 21:27:26 10° SSE
Abrixas 2.3 21:18:08 10° SW 21:21:08 69° SE 21:24:09 10° NE
deb Chang Zheng 4 3.9 21:19:16 10° NNE 21:23:30 43° E 21:27:38 10° S
H-2A R/B 3.3 21:21:34 10° S 21:25:11 54° W 21:28:51 10° NNW
Meteor 1-27 Rocket 3.9 21:23:19 10° N 21:28:42 51° E 21:32:18 20° SSE
H-2A R/B 3.0 21:29:41 25° ESE 21:31:06 31° ENE 21:34:51 10° N
Cosmos 2154 Rocket 3.9 21:27:09 10° S 21:33:22 78° E 21:39:33 10° N
Intelsat 3F5 C 4.0 21:30:46 10° W 21:34:10 83° N 21:35:11 40° E
YAOGAN 11 4.1 21:30:47 18° SSE 21:34:10 80° ENE 21:38:44 10° N
Cosmos 1408 2.5 21:31:52 18° S 21:34:26 64° E 21:38:03 10° NNE
ATLAS 5 CENTAUR R/B 3.1 21:29:26 10° NW 21:35:29 54° WSW 21:41:20 12° S
PSLV R/B 3.6 21:33:23 10° WNW 21:36:45 54° SSW 21:37:47 37° SSE
Cosmos 1782 3.1 21:34:28 10° NNW 21:38:29 67° W 21:41:47 15° S
IUS-26 SRM-1 3.2 21:40:25 10° WSW 21:41:33 25° SW 21:41:33 25° SW
Centaur AC-119 2.5 21:40:17 10° WSW 21:41:52 27° SW 21:41:52 27° SW
CZ-4 DEB 3.4 21:42:30 24° SSW 21:44:07 53° W 21:47:13 10° NNW
Cosmos 1174 3.0 21:41:42 10° NNW 21:44:42 59° ENE 21:44:45 59° ENE
Cosmos 676 Rocket 3.9 21:40:23 10° NNW 21:45:37 76° ENE 21:48:18 29° SSE
COS B Rocket 2.9 21:43:54 10° N 21:47:37 65° E 21:48:08 55° SE
Cosmos 1954 Rocket 4.1 21:43:38 10° N 21:48:48 60° ENE 21:50:51 35° SE
Okean 3 3.7 21:45:07 10° N 21:49:14 48° E 21:49:57 43° ESE
Cosmos 1825 2.5 21:48:39 15° SSW 21:51:46 66° W 21:55:34 10° N
Cosmos 1939 Rocket 2.6 21:51:52 47° SSE 21:52:55 79° ENE 21:56:50 10° N
Atlas Centaur 2 1.1 21:51:29 10° W 21:55:02 55° SSW 21:55:08 54° S
Cosmos 2278 Rocket 3.4 21:55:16 10° SW 22:00:37 43° WNW 22:06:00 10° N
Cosmos 1833 Rocket 4.3 21:56:52 10° NNE 22:00:42 18° ENE 22:01:16 18° ENE
BREEZE-M DEB (TANK) 2.7 22:01:09 10° NW 22:03:33 76° SW 22:04:01 63° SSE
Okean 2 Rocket 3.1 22:04:53 31° SSW 22:06:56 78° W 22:11:21 10° N
Envisat 3.1 22:12:11 39° S 22:14:04 74° W 22:19:08 10° NNW
Cosmos 1782 Rocket 4.4 22:11:18 17° SSW 22:14:34 48° W 22:18:55 10° N
Meteor 2-13 Rocket 4.5 22:11:26 18° S 22:16:10 80° W 22:22:21 10° N
SEDSat Delta rocket 2.8 22:14:49 10° W 22:19:11 78° NNW 22:19:11 78° NNW
OAO 3 Rocket 3.9 22:19:17 10° W 22:24:08 53° N 22:25:52 35° NE
UNK 4.3 22:18:13 10° NNE 22:24:20 89° W 22:27:02 34° SSW
Cosmos 614 Rocket 4.1 22:20:07 10° N 22:24:53 53° ENE 22:24:53 53° ENE
ERS-1 Rocket 4.3 22:22:56 20° SSW 22:25:47 35° W 22:30:22 10° NNW
Cosmos 2082 Rocket 2.8 22:21:26 10° N 22:26:47 41° ENE 22:26:47 41° ENE
Cosmos 2218 Rocket 3.9 22:26:40 46° S 22:28:46 82° E 22:35:12 10° N
COSMOS 2487 3.8 22:25:50 10° NNW 22:28:46 38° W 22:28:46 38° W
Meteor 1-14 Rocket 4.3 22:31:24 41° SSW 22:33:27 75° W 22:39:04 10° N
Cosmos 1975 Rocket 3.7 22:31:17 10° NNW 22:35:28 49° W 22:35:39 49° WSW
Terra 3.8 22:40:06 18° NE 22:40:06 18° NE 22:41:57 10° NNE
Cosmos 1959 Rocket 4.4 22:37:42 49° SSW 22:39:29 80° W 22:45:36 10° N
Cosmos 1140 Rocket 3.6 22:34:43 10° NNW 22:39:48 63° WSW 22:40:09 61° SW
DNEPR-1 R/B 4.0 22:35:41 10° NNW 22:39:53 63° NNW 22:39:53 63° NNW
NOAA 11 4.3 22:43:03 64° NE 22:43:03 64° NE 22:48:09 10° N
MetOp-B 4.3 22:45:55 63° SW 22:46:18 65° WSW 22:51:37 10° NNW
USA 234 4.1 22:40:26 10° NE 22:43:56 33° ENE 22:43:56 33° ENE
Cosmos 1727 Rocket 4.0 22:43:04 10° N 22:48:47 61° ENE 22:48:47 61° ENE
CZ-4B R/B 3.7 22:44:27 10° N 22:49:14 62° WNW 22:49:14 62° WNW
H-2A R/B 3.2 22:51:51 33° NE 22:51:51 33° NE 22:55:24 10° N
SPOT 5 4.0 22:53:16 39° WSW 22:54:00 42° W 22:59:03 10° NNW
SPOT 1/Viking Rocket 4.1 23:06:51 54° WNW 23:06:51 54° WNW 23:11:17 10° NNW
H-2A R/B 4.5 23:06:50 16° W 23:07:05 16° W 23:09:40 10° WNW
Cosmos 2369 Rocket 4.4 23:11:23 14° NE 23:11:23 14° NE 23:12:12 10° NE
Lacrosse 5 3.5 23:10:52 28° NNE 23:10:52 28° NNE 23:13:19 10° NNE
ARGOS 3.6 23:09:19 58° NW 23:09:19 58° NW 23:13:49 10° NNW
USA 229 DEB 4.0 23:31:30 10° NNW 23:37:41 64° WNW 23:37:41 64° WNW
USA 229 4.0 23:31:36 10° NNW 23:37:47 65° WNW 23:37:47 65° WNW
Cosmos 1833 Rocket 4.0 23:39:27 10° NNW 23:42:58 34° WNW 23:42:58 34° WNW
